This is the latest recevied weather packets stored in our database for station/object KU9TRY. If no packets are shown the sender has not sent any weather packets the latest 10 day(s).
| Time | Temp. | Humidity | Pressure | Rain* | Wind** | Luminosity | Snow |
|---|---|---|---|---|---|---|---|
| 1787667316 | 22.22° C | 79% | 1019.8 hPa | 0 mm | - | 595 W/m² | - |
| 1787667015 | 21.11° C | 81% | 1019.9 hPa | 0 mm | - | 617 W/m² | - |
| 1787666711 | 20.56° C | 85% | 1020 hPa | 0 mm | - | 606 W/m² | - |
| 1787666411 | 20° C | 86% | 1019.9 hPa | 0 mm | - | 161 W/m² | - |
| 1787666107 | 20° C | 87% | 1019.8 hPa | 0 mm | - | 147 W/m² | - |
| 1787665806 | 20° C | 86% | 1019.9 hPa | 0 mm | - | 129 W/m² | - |
| 1787665502 | 20° C | 89% | 1019.9 hPa | 0 mm | - | 135 W/m² | - |
| 1787665201 | 20° C | 90% | 1020 hPa | 0 mm | - | 150 W/m² | - |
| 1787664899 | 19.44° C | 91% | 1019.9 hPa | 0 mm | - | 169 W/m² | - |
| 1787664594 | 19.44° C | 92% | 1020 hPa | 0 mm | - | 146 W/m² | - |
| 1787664289 | 19.44° C | 92% | 1020 hPa | 0 mm | - | 127 W/m² | - |
| 1787663988 | 18.89° C | 92% | 1020 hPa | 0 mm | - | 108 W/m² | - |
| 1787663683 | 18.89° C | 93% | 1020 hPa | 0 mm | - | 93 W/m² | - |
| 1787663378 | 18.89° C | 93% | 1019.8 hPa | 0 mm | - | 92 W/m² | - |
| 1787663075 | 18.33° C | 94% | 1020.1 hPa | 0 mm | - | 78 W/m² | - |
| 1787662770 | 18.33° C | 95% | 1019.8 hPa | 0 mm | - | 68 W/m² | - |
| 1787662464 | 18.33° C | 95% | 1019.9 hPa | 0 mm | - | 59 W/m² | - |
| 1787662160 | 17.78° C | 95% | 1019.8 hPa | 0 mm | - | 51 W/m² | - |
| 1787661856 | 17.78° C | 96% | 1019.9 hPa | 0 mm | - | 46 W/m² | - |
| 1787661555 | 17.78° C | 96% | 1020 hPa | 0 mm | - | 45 W/m² | - |
| 1787661254 | 17.78° C | 96% | 1019.9 hPa | 0 mm | - | 44 W/m² | - |
| 1787660954 | 17.78° C | 96% | 1020 hPa | 0 mm | - | 39 W/m² | - |
| 1787660649 | 17.78° C | 96% | 1019.9 hPa | 0 mm | - | 35 W/m² | - |
| 1787660344 | 17.78° C | 97% | 1019.9 hPa | 0 mm | - | 29 W/m² | - |
| 1787660038 | 17.22° C | 97% | 1019.8 hPa | 0 mm | - | 26 W/m² | - |
* Rain latest hour (hover to see other rain measurements)
** Current wind speed in m/s (hover to see current wind gust speed)